CAPE
0 0 0 0 0 0 0 0 0 0 0 0 0 0 0 0 0 0 0 0 0 0 0 0 661 539 530 426 234 99 3 0 70 754 1205 1375 1306 1493 1803 1885 1452 1125 1433 1491
0 1 0 0 2 0 0 0 0 0 0 0 0 0 0 0 0 0 0 0 0 0 0 0 34 171 132 82 0 0 0 0 88 344 722 1164 1256 1166 1187 1630 1858 1747 1634 1504
0 0 29 46 1 1 0 1 0 0 0 0 0 0 0 0 0 0 0 0 0 0 0 0 0 150 4 0 0 0 0 0 6 0 154 807 787 936 972 1192 1280 1466 1643 1662
0 0 0 32 41 0 0 0 0 0 0 0 0 0 0 0 0 0 0 0 0 0 0 0 0 1042 505 8 0 0 12 93 62 8 67 420 549 738 812 553 842 749 1382 1474
1 3 1 11 19 36 0 0 0 0 0 0 0 0 0 0 0 0 0 0 0 0 0 0 0 1312 2584 1525 465 135 534 847 270 135 433 730 1175 707 586 790 848 682 650 908
32 5 1 6 29 47 1 6 0 0 0 0 0 0 0 0 0 0 0 0 0 0 0 0 0 1888 2194 2236 1884 1987 1852 1773 1469 1133 881 785 1156 724 963 761 651 409 463 641
16 1 0 2 14 53 27 2 0 0 0 0 0 0 0 0 0 0 0 0 0 0 0 0 1152 1894 1724 1065 530 1183 1840 1742 1299 1055 856 877 555 459 581 687 817 461 620 251
30 5 5 0 0 1 20 0 0 1 2 0 0 0 0 0 0 0 0 0 0 0 0 0 1790 1988 1290 295 274 1419 1917 1611 952 718 408 90 85 37 350 692 383 189 69 0
26 0 4 7 0 3 116 24 2 0 8 0 0 0 0 0 0 0 0 0 0 0 0 1 1444 1950 1019 1153 1632 1603 1364 963 479 521 64 1 0 0 2 15 0 0 0 0
9 3 0 1 71 9 126 51 42 0 26 15 0 0 0 0 47 210 0 0 0 0 0 10 2278 2110 2172 2066 1670 1184 597 251 23 0 0 0 0 0 0 0 0 0 0 0
3 22 3 22 21 66 162 57 11 0 3 3 0 0 20 9 191 343 21 0 0 0 1164 1847 2076 2094 1627 1204 612 349 45 0 0 0 0 0 0 0 0 0 0 0 0 0
4 0 1 0 3 2 86 26 0 0 0 0 0 0 66 125 638 570 414 745 1200 1381 1545 1544 1522 1297 668 250 4 0 0 0 0 0 0 0 0 0 0 0 0 0 0 0
6 10 0 1 1 5 16 33 10 0 11 0 9 11 277 833 917 737 977 1187 1166 1036 1046 905 605 185 0 0 0 0 0 0 0 0 0 0 0 0 0 0 0 0 0 0
33 5 1 0 4 5 0 47 29 0 0 42 27 106 282 804 945 678 812 876 904 917 381 83 1 0 0 0 0 0 0 0 0 0 0 0 0 0 0 0 0 0 0 0
3 8 2 0 0 1 0 0 56 0 12 29 24 59 126 190 829 760 673 340 63 0 0 0 0 0 0 0 0 0 0 0 0 0 0 0 0 0 0 0 0 0 0 0
4 1 19 3 0 0 1 0 111 17 14 2 0 0 97 25 368 343 64 0 0 0 0 0 0 0 0 0 0 0 0 0 0 0 0 0 0 0 0 0 0 0 0 0
1 7 10 4 0 0 0 9 98 127 0 2 0 0 11 56 171 5 0 0 0 0 0 0 0 0 0 0 0 0 0 0 0 0 0 0 0 0 0 0 0 0 0 0
0 2 9 7 4 17 40 90 211 226 216 12 0 0 0 54 2 1 0 0 0 0 0 0 0 0 0 0 0 0 0 0 0 0 0 0 0 0 0 0 0 0 0 0
1 4 6 1 1 20 79 111 122 47 95 36 0 3 1 2 0 0 0 0 0 0 0 0 0 0 0 0 0 0 0 0 0 0 0 0 0 0 0 0 0 0 0 0
8 2 6 3 3 107 62 141 85 6 24 16 0 5 1 0 0 1 0 0 0 0 0 0 0 0 0 0 0 0 0 0 0 0 0 0 0 0 0 0 0 0 0 0
6 8 5 0 2 12 1 20 22 0 1 9 25 4 2 0 1 0 0 0 0 0 0 0 0 0 0 0 0 0 0 0 0 0 0 0 0 0 0 0 0 0 0 0
3 5 6 3 0 13 15 26 21 1 1 0 1 2 2 2 0 0 0 0 0 0 0 0 0 0 0 0 0 0 0 0 0 0 0 0 0 0 0 0 0 0 0 0
6 18 9 4 6 9 0 0 0 0 0 1 0 1 0 0 0 0 0 0 0 0 0 0 0 0 0 0 0 0 0 0 0 0 0 0 0 0 0 0 0 0 0 0
2 4 8 2 11 10 2 0 0 0 0 0 0 0 0 0 0 0 0 0 0 0 0 0 0 0 0 0 0 0 0 0 0 0 0 0 0 0 0 0 0 0 0 0
4 6 7 6 13 5 10 0 0 0 0 0 1 0 0 0 0 0 0 0 0 0 0 0 0 0 0 0 0 0 0 0 0 0 0 0 0 0 0 0 0 0 0 0
6 4 2 5 13 3 14 7 0 0 1 0 0 0 0 0 0 0 0 0 0 0 0 0 0 0 0 0 0 0 0 0 0 0 0 0 0 0 0 0 0 0 0 0
CIN
-0 -0 -0 -0 -0 -0 -0 -0 -0 -0 -0 -0 -0 -0 -0 -0 -0 -0 -0 -0 -0 -0 -0 -0 -519 -530 -407 -370 -405 -498 -403 -0 -554 -376 -234 -99 -114 -131 -93 -138 -150 -206 -147 -121
-0 -5 -0 -0 -4 -0 -0 -0 -0 -0 -0 -0 -0 -0 -0 -0 -0 -0 -0 -0 -0 -0 -0 -0 -353 -655 -622 -598 -0 -0 -0 -0 -510 -429 -227 -184 -105 -131 -140 -123 -118 -125 -122 -112
-0 -0 -28 -32 -23 -4 -7 -1 -0 -0 -0 -0 -0 -0 -0 -0 -0 -0 -0 -0 -0 -0 -0 -0 -0 -619 -311 -0 -228 -0 -0 -0 -218 -0 -375 -208 -180 -101 -73 -54 -71 -98 -103 -84
-0 -0 -0 -17 -17 -0 -0 -0 -0 -0 -0 -0 -0 -0 -0 -0 -0 -0 -0 -0 -0 -0 -0 -0 -0 -372 -435 -516 -0 -0 -451 -495 -472 -381 -447 -219 -106 -8 -74 -116 -111 -119 -120 -95
-2 -17 -2 -32 -22 -31 -0 -0 -0 -0 -0 -0 -0 -0 -0 -0 -0 -0 -0 -0 -0 -0 -0 -0 -0 -342 -173 -249 -388 -494 -283 -190 -360 -322 -104 -28 -12 -98 -146 -89 -111 -173 -242 -162
-15 -32 -9 -13 -25 -64 -5 -20 -0 -0 -0 -0 -0 -0 -0 -0 -0 -0 -0 -0 -0 -0 -0 -0 -0 -295 -224 -146 -160 -144 -110 -140 -116 -86 -32 -15 -42 -131 -113 -132 -159 -221 -230 -204
-25 -23 -0 -21 -38 -51 -37 -33 -0 -0 -0 -0 -0 -0 -0 -0 -0 -0 -0 -0 -0 -0 -0 -0 -352 -230 -232 -293 -368 -262 -207 -196 -194 -162 -122 -138 -140 -104 -134 -197 -140 -92 -143 -261
-0 -1 -20 -0 -0 -31 -60 -0 -0 -0 -23 -0 -0 -0 -0 -0 -0 -0 -0 -0 -0 -0 -0 -0 -266 -237 -310 -530 -453 -273 -198 -189 -198 -176 -218 -239 -213 -123 -86 -215 -238 -261 -372 -0
-0 -0 -6 -13 -0 -20 -7 -17 -18 -27 -76 -0 -0 -0 -0 -0 -0 -0 -0 -0 -0 -0 -0 -33 -266 -234 -336 -306 -212 -226 -224 -219 -269 -211 -363 -0 -0 -0 -184 -458 -0 -0 -0 -0
-0 -0 -0 -8 -56 -44 -31 -90 -17 -0 -10 -11 -0 -0 -0 -0 -79 -247 -0 -0 -0 -0 -0 -275 -172 -165 -148 -144 -164 -228 -295 -361 -248 -0 -0 -0 -0 -0 -0 -0 -0 -0 -0 -0
-1 -0 -1 -9 -28 -27 -19 -67 -81 -10 -77 -5 -0 -0 -207 -274 -215 -277 -111 -0 -0 -0 -283 -138 -122 -123 -148 -216 -275 -350 -562 -0 -0 -0 -0 -0 -0 -0 -0 -0 -0 -0 -0 -0
-1 -0 -0 -0 -6 -46 -59 -158 -4 -36 -0 -0 -0 -0 -283 -294 -166 -234 -384 -390 -252 -238 -140 -115 -152 -166 -214 -400 -25 -0 -0 -0 -0 -0 -0 -0 -0 -0 -0 -0 -0 -0 -0 -0
-1 -0 -0 -4 -1 -2 -25 -33 -10 -0 -173 -4 -22 -28 -177 -89 -92 -122 -207 -157 -182 -194 -167 -156 -207 -402 -0 -0 -0 -0 -0 -0 -0 -0 -0 -0 -0 -0 -0 -0 -0 -0 -0 -0
-2 -0 -0 -0 -0 -0 -0 -51 -60 -0 -0 -63 -32 -33 -82 -28 -33 -84 -126 -129 -183 -184 -282 -432 -100 -0 -0 -0 -0 -0 -0 -0 -0 -0 -0 -0 -0 -0 -0 -0 -0 -0 -0 -0
-0 -0 -0 -0 -0 -0 -0 -1 -46 -0 -140 -73 -15 -35 -47 -123 -1 -43 -102 -164 -344 -121 -0 -0 -0 -0 -0 -0 -0 -0 -0 -0 -0 -0 -0 -0 -0 -0 -0 -0 -0 -0 -0 -0
-0 -0 -0 -0 -0 -0 -0 -0 -55 -75 -101 -188 -0 -0 -55 -176 -61 -62 -213 -0 -0 -0 -0 -0 -0 -0 -0 -0 -0 -0 -0 -0 -0 -0 -0 -0 -0 -0 -0 -0 -0 -0 -0 -0
-0 -0 -0 -0 -0 -0 -11 -66 -52 -43 -53 -284 -0 -0 -84 -92 -80 -17 -0 -0 -0 -0 -0 -0 -0 -0 -0 -0 -0 -0 -0 -0 -0 -0 -0 -0 -0 -0 -0 -0 -0 -0 -0 -0
-0 -0 -0 -0 -0 -3 -60 -77 -26 -80 -57 -155 -0 -10 -0 -46 -1 -4 -0 -0 -0 -0 -0 -0 -0 -0 -0 -0 -0 -0 -0 -0 -0 -0 -0 -0 -0 -0 -0 -0 -0 -0 -0 -0
-0 -0 -0 -0 -0 -8 -29 -33 -50 -61 -14 -71 -0 -0 -0 -1 -0 -0 -0 -0 -0 -0 -0 -0 -0 -0 -0 -0 -0 -0 -0 -0 -0 -0 -0 -0 -0 -0 -0 -0 -0 -0 -0 -0
-0 -0 -0 -0 -0 -5 -15 -80 -105 -179 -70 -124 -0 -0 -0 -0 -0 -0 -0 -0 -0 -0 -0 -0 -0 -0 -0 -0 -0 -0 -0 -0 -0 -0 -0 -0 -0 -0 -0 -0 -0 -0 -0 -0
-0 -0 -0 -0 -0 -1 -3 -74 -137 -0 -0 -0 -0 -0 -0 -0 -0 -0 -0 -0 -0 -0 -0 -0 -0 -0 -0 -0 -0 -0 -0 -0 -0 -0 -0 -0 -0 -0 -0 -0 -0 -0 -0 -0
-0 -0 -0 -0 -0 -8 -2 -46 -63 -0 -0 -0 -0 -0 -0 -0 -0 -0 -0 -0 -0 -0 -0 -0 -0 -0 -0 -0 -0 -0 -0 -0 -0 -0 -0 -0 -0 -0 -0 -0 -0 -0 -0 -0
-0 -0 -0 -0 -0 -0 -0 -0 -0 -0 -0 -0 -0 -0 -0 -0 -0 -0 -0 -0 -0 -0 -0 -0 -0 -0 -0 -0 -0 -0 -0 -0 -0 -0 -0 -0 -0 -0 -0 -0 -0 -0 -0 -0
-0 -0 -0 -0 -0 -0 -0 -0 -0 -0 -0 -0 -0 -1 -0 -0 -0 -0 -0 -0 -0 -0 -0 -0 -0 -0 -0 -0 -0 -0 -0 -0 -0 -0 -0 -0 -0 -0 -0 -0 -0 -0 -0 -0
-0 -0 -0 -0 -0 -0 -0 -0 -0 -0 -0 -0 -0 -0 -0 -0 -0 -0 -0 -0 -0 -0 -0 -0 -0 -0 -0 -0 -0 -0 -0 -0 -0 -0 -0 -0 -0 -0 -0 -0 -0 -0 -0 -0
-0 -0 -0 -0 -0 -0 -0 -0 -0 -0 -0 -0 -0 -0 -0 -0 -0 -0 -0 -0 -0 -0 -0 -0 -0 -0 -0 -0 -0 -0 -0 -0 -0 -0 -0 -0 -0 -0 -0 -0 -0 -0 -0 -0
Wind_Speed
3 4 11 10 12 15 14 14 10 8 7 13 19 21 13 13 6 9 9 9 9 9 8 9 18 18 17 16 16 16 14 9 7 4 3 4 6 3 2 5 10 11 8 6
1 10 11 11 15 18 17 17 16 14 10 9 16 22 13 10 16 12 10 10 10 6 8 8 17 17 18 20 16 13 11 13 13 11 5 5 3 3 3 0 6 8 8 7
11 8 9 8 14 14 16 17 13 14 12 11 8 14 8 12 10 13 10 11 9 12 11 10 11 20 19 19 18 17 14 12 7 4 5 0 4 3 4 3 3 5 8 5
12 17 15 13 14 18 15 13 16 12 13 7 6 11 10 18 15 13 17 11 12 12 7 8 10 15 19 18 16 16 12 9 6 8 10 10 11 7 5 5 3 4 7 5
7 10 13 11 17 10 13 15 12 14 13 3 14 3 9 10 16 16 17 13 12 11 11 11 10 13 18 20 20 18 18 18 18 14 11 13 13 6 7 5 7 7 7 6
10 5 6 8 7 4 10 8 14 10 3 8 16 7 6 6 22 25 12 12 13 10 9 10 9 14 16 14 16 19 19 15 13 15 16 14 15 6 5 4 4 6 3 4
4 14 10 7 6 3 6 1 5 6 7 7 8 8 10 11 10 14 17 12 10 10 10 10 14 13 17 16 13 12 12 9 6 3 5 7 7 3 5 8 10 3 4 4
3 5 2 10 8 8 11 9 4 6 7 9 9 10 10 20 10 12 19 17 13 12 10 13 16 17 17 14 13 13 11 9 7 5 8 9 7 5 5 7 9 6 6 6
4 4 3 9 12 11 5 9 10 3 3 3 3 5 4 7 4 8 11 11 11 10 11 13 15 17 16 15 13 16 15 14 13 13 12 11 10 11 11 13 12 8 8 8
3 7 5 8 3 12 5 4 7 4 4 5 6 13 7 5 5 8 8 10 9 9 11 12 16 19 17 15 14 16 17 17 16 16 14 12 13 14 14 14 13 11 8 8
3 3 3 2 5 11 4 4 2 5 4 5 8 6 4 3 5 7 4 9 10 14 17 19 17 18 18 17 17 17 17 18 16 15 13 14 14 13 13 11 9 8 8 7
3 2 6 9 5 3 2 6 8 6 6 1 3 4 6 9 3 3 11 18 19 24 22 21 20 20 18 18 17 17 16 16 16 14 14 13 15 12 13 10 8 7 8 7
3 2 5 1 2 2 2 8 6 4 1 4 3 3 7 6 9 3 22 18 22 25 24 19 19 19 19 19 17 17 16 16 15 15 14 13 13 13 12 10 10 11 12 11
11 4 8 5 2 1 6 5 10 6 4 3 2 3 6 6 11 14 19 18 22 23 23 20 19 19 20 20 17 16 16 15 15 14 14 14 13 14 12 11 11 11 10 11
1 5 8 14 14 12 14 11 5 11 9 5 4 3 3 3 9 15 18 19 21 24 23 22 22 19 19 20 16 17 16 15 14 15 15 14 13 13 12 12 10 10 10 7
1 4 3 10 16 13 10 12 5 8 12 7 4 1 1 5 4 14 20 23 23 24 23 22 23 23 20 18 17 16 15 13 14 16 15 13 14 13 11 9 8 9 7 7
4 2 3 4 11 10 6 11 12 6 13 11 6 4 4 6 11 14 21 23 25 25 23 23 21 20 17 16 16 15 14 13 14 15 14 14 13 11 9 8 9 8 7 7
3 2 2 3 5 4 5 13 13 16 11 13 6 1 7 8 17 17 16 27 25 24 24 21 19 18 17 16 16 16 15 14 14 15 14 12 12 11 9 9 8 8 5 6
6 1 4 3 4 5 14 13 12 22 6 3 12 15 17 20 30 19 17 21 22 24 21 18 17 17 17 16 16 16 15 14 14 13 12 11 10 10 9 8 7 6 7 7
1 3 2 3 3 4 0 8 16 12 7 13 23 20 22 23 20 9 16 23 20 22 19 19 18 17 16 13 15 16 14 14 13 12 12 10 9 10 10 8 8 8 6 5
6 4 3 5 5 4 4 4 10 6 8 15 15 9 13 18 15 16 17 20 20 20 21 19 18 16 13 13 15 16 14 14 12 12 12 12 11 11 8 8 7 6 5 7
5 6 4 5 5 7 9 7 2 11 18 20 18 19 22 23 21 20 19 20 20 20 19 17 17 15 11 13 14 15 14 12 13 13 13 12 11 9 7 7 6 5 6 6
3 5 5 5 5 8 8 9 16 16 23 23 19 16 26 22 20 19 19 19 18 17 16 14 15 15 12 11 11 15 13 13 13 12 11 10 10 9 8 7 5 4 5 6
5 5 4 4 12 13 16 19 19 20 21 19 20 17 20 23 20 20 17 16 15 14 14 13 15 15 12 10 11 12 12 11 12 12 11 9 9 8 6 4 4 5 6 7
4 10 9 4 7 14 15 16 21 22 22 22 20 19 18 21 19 20 17 16 14 14 12 12 13 12 11 10 10 11 9 10 10 10 8 7 5 5 4 4 3 3 3 3
7 5 4 3 7 13 10 12 19 24 20 19 24 19 15 15 19 18 16 14 13 13 12 12 12 12 10 10 9 9 8 7 9 8 5 4 4 3 3 3 3 4 4 5
Wind_Direction
136 186 232 237 242 244 254 267 257 253 220 211 229 239 246 226 220 209 217 233 241 221 199 132 148 151 146 151 156 170 154 162 164 167 159 182 184 173 161 174 196 183 185 170
160 214 221 239 249 232 238 254 267 275 263 222 234 237 228 218 227 219 202 222 224 227 202 134 144 150 159 162 166 163 178 168 183 195 171 151 125 107 48 91 148 159 148 151
226 231 217 235 256 258 233 238 243 254 272 291 236 249 222 235 232 213 220 211 207 206 217 137 153 161 164 164 169 175 186 193 200 184 108 79 57 46 91 299 224 177 136 152
243 241 235 228 238 238 243 245 259 263 246 236 177 249 211 218 209 211 216 209 213 219 193 156 179 152 162 172 169 167 168 176 219 214 155 182 205 193 182 191 167 205 129 150
241 201 201 220 229 238 261 226 231 256 263 262 267 276 246 193 213 217 217 208 201 204 177 165 189 148 164 159 168 177 179 186 208 201 201 204 197 186 168 172 157 118 84 108
252 271 188 182 179 248 237 300 235 244 228 234 235 198 270 192 201 217 213 206 190 186 175 183 171 142 148 158 156 160 177 177 179 186 182 208 200 171 156 114 98 86 100 81
267 226 212 190 152 185 215 102 185 228 197 227 188 211 244 264 223 201 203 199 193 171 168 159 152 150 144 152 156 142 148 141 152 122 131 107 117 113 76 129 114 165 90 75
331 281 217 193 193 163 215 186 171 202 152 220 163 204 237 232 247 224 194 189 187 172 168 159 159 158 149 144 143 138 137 114 86 110 82 68 77 123 164 98 102 99 85 72
308 288 247 252 214 183 181 188 200 318 187 91 202 228 290 253 255 219 190 165 185 172 152 149 156 147 140 137 140 132 117 97 90 87 81 68 69 79 93 89 79 77 72 68
281 286 215 286 181 192 183 152 152 260 196 161 184 214 227 204 211 271 191 183 180 152 132 131 131 132 126 116 112 103 100 101 96 91 91 86 77 71 71 75 76 74 72 75
300 267 316 318 227 170 152 133 166 200 257 155 165 243 326 319 247 220 260 188 134 114 117 122 121 119 118 109 105 104 100 97 91 90 89 90 81 71 74 74 72 75 77 67
196 238 265 241 275 18 141 159 190 137 214 284 173 254 312 251 151 212 103 118 118 117 119 121 113 113 108 103 104 97 94 96 94 96 91 83 87 82 78 72 69 61 62 51
159 218 300 229 58 133 168 181 165 136 113 175 122 283 339 99 101 147 115 114 115 114 112 108 111 108 107 98 96 97 97 97 96 93 92 90 91 88 76 65 57 55 61 64
225 198 209 228 50 313 278 241 160 151 118 151 60 26 356 97 112 128 111 115 114 111 109 108 104 103 102 101 99 105 96 96 96 96 93 88 80 76 77 72 64 60 57 61
217 244 231 251 254 257 253 260 175 180 144 131 156 53 322 334 143 132 116 108 104 104 108 109 106 103 101 97 100 95 96 97 101 93 83 84 80 79 73 66 63 62 62 60
199 267 256 267 239 225 228 227 188 177 136 110 143 219 333 236 205 117 118 113 107 105 103 102 102 99 95 99 102 100 94 92 93 91 88 84 78 73 73 73 69 66 57 53
198 245 286 306 146 172 231 226 189 183 154 140 155 173 134 217 139 125 114 107 105 104 103 97 97 97 99 102 97 96 94 94 89 89 87 81 80 78 70 65 63 58 55 47
188 202 239 283 140 144 251 137 128 109 106 100 76 245 203 186 109 105 100 108 106 104 101 98 97 94 92 93 91 92 91 89 88 84 83 84 82 74 64 59 55 46 33 41
169 193 297 333 55 122 93 122 122 123 49 104 99 93 94 125 94 73 93 93 100 101 98 96 94 94 93 91 92 91 89 89 86 86 87 84 82 77 67 59 55 48 45 35
42 247 288 320 91 87 274 129 132 129 108 144 131 143 143 117 93 98 99 98 96 97 98 97 92 88 86 87 92 89 89 88 87 87 83 74 67 69 60 45 45 56 48 28
341 359 356 334 59 77 352 227 332 79 147 120 126 109 96 96 104 115 102 91 96 95 95 93 88 87 89 91 92 92 90 87 88 81 74 69 68 64 56 52 40 39 32 42
351 333 353 344 43 71 -0 289 355 128 101 104 98 114 104 99 102 102 96 93 89 92 88 87 91 86 86 91 95 92 90 91 87 82 79 73 65 63 58 58 38 32 36 42
29 13 307 13 19 352 19 81 83 101 110 114 107 115 113 106 100 96 93 90 89 88 91 90 91 90 81 81 89 96 97 93 89 85 79 73 73 67 54 52 32 40 36 46
333 352 351 331 30 44 68 78 84 93 98 102 111 110 107 109 105 99 96 94 94 92 92 95 94 91 88 78 79 83 94 101 101 93 84 77 76 64 50 51 44 56 50 60
329 314 329 42 60 63 52 83 100 93 94 95 87 90 97 106 102 105 103 99 98 99 97 95 97 100 97 84 74 79 81 90 94 92 95 87 82 79 72 60 62 52 69 71
343 327 359 1 355 87 82 92 100 98 98 99 101 90 86 88 102 102 99 101 102 102 105 102 99 97 90 87 75 71 73 87 104 106 100 104 104 100 83 71 63 44 48 33